Content
SEND FEEDBACK

Daily
Averages
Monthly
Summary
United States of America

HYANNIS, MASSACHUSETTS


Home > North America > United States > Massachusetts
Elevation: 2 feet     Latitude: 41 40N     Longitude: 070 18W

WEATHER
 
SELECT A DAY
Number of Records: 207,273;   Date Range: 1/1/95 - 8/28/14
 
SHARE

PRINT THIS DATA

[ ← Previous Day ]
WEATHER ALMANAC - JUNE 24, 2013
[ Next Day → ]
[ °C ]   °F
We're sorry. There is no daily almanac available for Hyannis, Massachusetts on June 24, 2013.
WEATHER BY HOUR - JUNE 24, 2013
[ °C ]   °F
Local TimeTemperatureDewpointHumidityBarometerVisibilityWind DirectionWind SpeedGust SpeedPrecipitationEventsConditions
1:56 AM70.0 °F68.0 °F93 %30.05 in10.0 miSW (230°)16.1 mphOvercast
2:56 AM70.0 °F68.0 °F93 %30.04 in8.0 miSW (230°)15.0 mphOvercast
3:56 AM69.1 °F68.0 °F96 %30.03 in4.0 miSW (220°)12.7 mphOvercast
4:40 AM69.8 °F68.0 °F94 %30.01 in2.5 miSW (220°)13.8 mphOvercast
4:56 AM69.1 °F68.0 °F96 %30.01 in2.5 miSW (220°)12.7 mphOvercast
5:14 AM69.8 °F68.0 °F94 %30.01 in1.5 miSW (220°)13.8 mph19.6 mphOvercast
5:43 AM68.0 °F68.0 °F100 %30.00 in3.0 miSW (230°)15.0 mph23.0 mphOvercast
5:56 AM69.1 °F68.0 °F96 %30.01 in8.0 miSW (230°)16.1 mphOvercast
6:56 AM69.1 °F68.0 °F96 %29.99 in4.0 miSW (220°)13.8 mph25.3 mphOvercast
7:17 AM69.8 °F68.0 °F94 %29.99 in1.0 miSW (230°)12.7 mphOvercast
7:56 AM71.1 °F68.0 °F90 %30.01 in10.0 miSW (230°)6.9 mphOvercast
8:24 AM71.6 °F69.8 °F94 %30.00 in10.0 miSW (230°)10.4 mphOvercast
8:56 AM75.9 °F70.0 °F82 %29.99 in10.0 miSW (230°)11.5 mphScattered Clouds
9:56 AM77.0 °F70.0 °F79 %29.98 in10.0 miSSW (210°)9.2 mphClear
10:56 AM78.1 °F70.0 °F76 %29.97 in10.0 miSSW (200°)10.4 mphClear
11:56 AM79.0 °F71.1 °F77 %29.97 in10.0 miSSW (210°)9.2 mphClear
12:56 PM81.0 °F71.1 °F72 %29.95 in10.0 miSSW (210°)11.5 mphClear
1:56 PM84.0 °F72.0 °F67 %29.94 in10.0 miSSW (200°)8.1 mphClear
2:56 PM84.9 °F72.0 °F65 %29.93 in9.0 miSW (230°)11.5 mphClear
3:56 PM86.0 °F72.0 °F63 %29.91 in10.0 miSW (230°)11.5 mphClear
4:56 PM84.0 °F71.1 °F65 %29.89 in10.0 miSW (220°)15.0 mphClear
5:56 PM82.0 °F71.1 °F69 %29.89 in10.0 miSW (220°)10.4 mphClear
6:56 PM82.0 °F69.1 °F65 %29.90 in10.0 miSW (230°)11.5 mphClear
7:56 PM81.0 °F69.1 °F67 %29.89 in10.0 miWest (260°)12.7 mphClear
8:56 PM79.0 °F69.1 °F72 %29.91 in10.0 miWest (260°)16.1 mph21.9 mphClear
9:56 PM75.9 °F64.9 °F69 %29.97 in10.0 miNorth (350°)17.3 mph24.2 mphOvercast
10:06 PM73.4 °F64.4 °F73 %29.96 in10.0 miNNW (340°)17.3 mph32.2 mphThunderstormOvercast
10:44 PM71.6 °F64.4 °F78 %29.94 in9.0 miNorth (360°)8.1 mphClear
10:56 PM71.1 °F64.9 °F81 %29.94 in10.0 miNW (310°)5.8 mphClear
11:56 PM73.0 °F64.0 °F73 %29.91 in10.0 miCalmClear
Hourly data recorded from KHYA, located miles away from Hyannis, Massachusetts







STORIES FROM OUR PARTNERS